This is the latest recevied weather packets stored in our database for station/object SV1RVP-13. If no packets are shown the sender has not sent any weather packets the latest 1 day(s).
| Time | Temp. | Humidity | Pressure | Rain* | Wind** | Luminosity | Snow |
|---|---|---|---|---|---|---|---|
| 1778054317 | 22.78° C | 50% | 1016 hPa | 0 mm | 0.89 m/s, 205° | - | - |
| 1778053713 | 22.78° C | 50% | 1016 hPa | 0 mm | 0.89 m/s, 178° | - | - |
| 1778053134 | 22.78° C | 49% | 1016 hPa | 0 mm | 0.89 m/s, 218° | - | - |
| 1778052507 | 22.22° C | 50% | 1015.9 hPa | 0 mm | 0.89 m/s, 196° | - | - |
| 1778051929 | 22.22° C | 50% | 1015.7 hPa | 0 mm | 0.45 m/s, 197° | - | - |
| 1778051317 | 22.22° C | 50% | 1015.8 hPa | 0 mm | 0.45 m/s, 184° | - | - |
| 1778050710 | 21.67° C | 50% | 1015.8 hPa | 0 mm | 0.45 m/s, 201° | - | - |
| 1778050106 | 21.67° C | 49% | 1015.8 hPa | 0 mm | 0.45 m/s, 242° | - | - |
| 1778049528 | 21.67° C | 50% | 1015.8 hPa | 0 mm | 0.45 m/s, 65° | - | - |
| 1778048915 | 21.11° C | 51% | 1015.9 hPa | 0 mm | 0 m/s | - | - |
| 1778048313 | 21.11° C | 50% | 1015.8 hPa | 0 mm | 0.45 m/s, 120° | - | - |
| 1778047734 | 20.56° C | 52% | 1015.8 hPa | 0 mm | 0.45 m/s, 45° | - | - |
| 1778047111 | 20.56° C | 54% | 1015.8 hPa | 0 mm | 0.45 m/s, 331° | - | - |
| 1778046506 | 20° C | 54% | 1015.8 hPa | 0 mm | 0.45 m/s, 344° | - | - |
| 1778045925 | 19.44° C | 55% | 1015.7 hPa | 0 mm | 0.45 m/s, 345° | - | - |
| 1778045320 | 19.44° C | 56% | 1015.6 hPa | 0 mm | 0.45 m/s, 23° | - | - |
| 1778044708 | 18.89° C | 58% | 1015.6 hPa | 0 mm | 0.45 m/s, 316° | - | - |
| 1778044106 | 18.89° C | 59% | 1015.6 hPa | 0 mm | 0.89 m/s, 10° | - | - |
| 1778043524 | 18.33° C | 60% | 1015.4 hPa | 0 mm | 0.45 m/s, 346° | - | - |
| 1778042925 | 18.33° C | 60% | 1015.2 hPa | 0 mm | 0.45 m/s, 350° | - | - |
| 1778042315 | 17.78° C | 62% | 1015.3 hPa | 0 mm | 0.45 m/s, 71° | - | - |
| 1778041719 | 16.67° C | 65% | 1015.3 hPa | 0 mm | 0 m/s | - | - |
| 1778041109 | 16.67° C | 66% | 1015.3 hPa | 0 mm | 0 m/s | - | - |
| 1778040512 | 16.11° C | 66% | 1015.1 hPa | 0 mm | 0.45 m/s, 146° | - | - |
| 1778039923 | 16.11° C | 67% | 1015 hPa | 0 mm | 0 m/s | - | - |
* Rain since midnight (hover to see other rain measurements)
** Current wind speed in m/s (hover to see current wind gust speed)